QPF
0.00 0.00 0.00 0.00 0.00 0.00 0.00 0.00 0.00 0.00 0.00 0.00 0.00 0.00 0.00 0.00 0.00 0.00 0.00 0.00 0.01 0.01 0.03 0.04 0.05 0.05 0.07 0.08 0.08 0.09 0.10 0.11 0.11 0.12 0.14 0.14 0.13 0.15 0.17 0.19 0.18 0.18 0.19 0.21
0.00 0.00 0.00 0.00 0.00 0.00 0.00 0.00 0.00 0.00 0.00 0.00 0.00 0.00 0.00 0.00 0.00 0.00 0.01 0.01 0.01 0.02 0.04 0.05 0.05 0.04 0.04 0.03 0.03 0.03 0.02 0.03 0.03 0.04 0.07 0.09 0.10 0.11 0.09 0.08 0.10 0.14 0.17 0.15
0.00 0.00 0.00 0.00 0.00 0.00 0.00 0.00 0.00 0.00 0.00 0.00 0.00 0.00 0.00 0.00 0.01 0.01 0.01 0.02 0.03 0.04 0.04 0.04 0.03 0.02 0.01 0.01 0.00 0.00 0.00 0.00 0.00 0.01 0.01 0.02 0.03 0.02 0.01 0.02 0.03 0.06 0.08 0.08
0.00 0.00 0.00 0.00 0.00 0.00 0.00 0.00 0.00 0.00 0.00 0.00 0.00 0.00 0.00 0.00 0.01 0.02 0.02 0.02 0.03 0.04 0.03 0.02 0.02 0.01 0.00 0.00 0.00 0.00 0.00 0.00 0.00 0.00 0.00 0.00 0.00 0.00 0.00 0.00 0.00 0.01 0.01 0.02
0.00 0.00 0.00 0.00 0.00 0.00 0.00 0.00 0.00 0.00 0.00 0.00 0.00 0.00 0.00 0.00 0.01 0.02 0.02 0.03 0.03 0.03 0.02 0.01 0.01 0.00 0.00 0.00 0.00 0.00 0.00 0.00 0.00 0.00 0.00 0.00 0.00 0.00 0.00 0.00 0.00 0.00 0.00 0.00
0.00 0.00 0.00 0.00 0.00 0.00 0.00 0.00 0.00 0.00 0.00 0.00 0.00 0.00 0.00 0.00 0.00 0.01 0.01 0.02 0.02 0.01 0.00 0.00 0.00 0.00 0.00 0.00 0.00 0.00 0.00 0.00 0.00 0.00 0.00 0.00 0.00 0.00 0.00 0.00 0.00 0.00 0.00 0.00
0.00 0.00 0.00 0.00 0.00 0.00 0.00 0.00 0.00 0.00 0.00 0.00 0.00 0.00 0.00 0.00 0.00 0.00 0.00 0.01 0.01 0.00 0.00 0.00 0.00 0.00 0.00 0.00 0.00 0.00 0.00 0.00 0.00 0.00 0.00 0.00 0.00 0.00 0.00 0.00 0.00 0.00 0.00 0.00
0.00 0.00 0.01 0.01 0.01 0.00 0.00 0.00 0.00 0.00 0.00 0.00 0.00 0.00 0.00 0.00 0.00 0.00 0.00 0.00 0.00 0.00 0.00 0.00 0.00 0.00 0.00 0.00 0.00 0.00 0.00 0.00 0.00 0.00 0.00 0.00 0.00 0.00 0.00 0.00 0.00 0.00 0.00 0.00
0.00 0.00 0.00 0.00 0.01 0.01 0.01 0.00 0.00 0.00 0.00 0.00 0.00 0.00 0.00 0.00 0.00 0.00 0.00 0.00 0.00 0.00 0.00 0.00 0.00 0.00 0.00 0.00 0.00 0.00 0.00 0.00 0.00 0.00 0.00 0.00 0.00 0.00 0.00 0.00 0.00 0.00 0.00 0.00
0.00 0.00 0.00 0.00 0.00 0.00 0.00 0.00 0.00 0.00 0.00 0.00 0.00 0.00 0.00 0.00 0.00 0.00 0.00 0.00 0.00 0.00 0.00 0.00 0.00 0.00 0.00 0.00 0.00 0.00 0.00 0.00 0.00 0.00 0.00 0.00 0.00 0.00 0.00 0.00 0.00 0.00 0.00 0.00
0.00 0.00 0.00 0.00 0.00 0.00 0.00 0.00 0.00 0.00 0.00 0.00 0.00 0.00 0.00 0.00 0.00 0.00 0.00 0.00 0.00 0.00 0.00 0.00 0.00 0.00 0.00 0.00 0.00 0.00 0.00 0.00 0.00 0.00 0.00 0.00 0.00 0.00 0.00 0.00 0.00 0.00 0.00 0.00
0.00 0.00 0.00 0.00 0.00 0.00 0.00 0.00 0.00 0.00 0.00 0.00 0.00 0.00 0.00 0.00 0.00 0.00 0.00 0.00 0.00 0.00 0.00 0.00 0.00 0.00 0.00 0.00 0.00 0.00 0.00 0.00 0.00 0.00 0.00 0.00 0.00 0.00 0.00 0.00 0.00 0.00 0.00 0.00
0.00 0.00 0.00 0.00 0.00 0.00 0.00 0.00 0.01 0.00 0.00 0.00 0.00 0.00 0.00 0.00 0.00 0.00 0.00 0.00 0.00 0.00 0.00 0.00 0.00 0.00 0.00 0.00 0.00 0.00 0.00 0.00 0.00 0.00 0.00 0.00 0.00 0.00 0.00 0.00 0.00 0.00 0.00 0.00
0.00 0.00 0.00 0.00 0.00 0.00 0.00 0.00 0.00 0.00 0.00 0.00 0.00 0.00 0.00 0.00 0.00 0.00 0.00 0.00 0.00 0.00 0.00 0.00 0.00 0.00 0.00 0.00 0.00 0.00 0.00 0.00 0.00 0.00 0.00 0.00 0.00 0.00 0.00 0.00 0.00 0.00 0.00 0.00
0.00 0.00 0.00 0.00 0.00 0.00 0.00 0.00 0.00 0.00 0.00 0.00 0.00 0.00 0.00 0.00 0.00 0.00 0.00 0.00 0.00 0.00 0.00 0.00 0.00 0.00 0.00 0.00 0.00 0.00 0.00 0.00 0.00 0.00 0.00 0.00 0.00 0.00 0.00 0.00 0.00 0.00 0.00 0.00
0.00 0.00 0.00 0.00 0.00 0.00 0.00 0.00 0.00 0.00 0.00 0.00 0.00 0.00 0.00 0.01 0.01 0.01 0.01 0.01 0.00 0.00 0.00 0.00 0.00 0.00 0.00 0.00 0.00 0.00 0.00 0.00 0.00 0.00 0.00 0.01 0.01 0.01 0.01 0.00 0.00 0.00 0.00 0.00
0.00 0.00 0.00 0.00 0.01 0.00 0.00 0.00 0.00 0.00 0.01 0.01 0.02 0.02 0.02 0.02 0.02 0.02 0.01 0.01 0.01 0.01 0.01 0.00 0.00 0.00 0.00 0.00 0.00 0.00 0.00 0.00 0.00 0.00 0.00 0.01 0.02 0.01 0.01 0.01 0.01 0.00 0.00 0.00
0.01 0.01 0.01 0.00 0.00 0.00 0.00 0.00 0.00 0.01 0.02 0.03 0.03 0.03 0.03 0.04 0.04 0.05 0.06 0.05 0.03 0.02 0.01 0.01 0.00 0.00 0.00 0.00 0.00 0.00 0.00 0.00 0.00 0.01 0.01 0.02 0.03 0.03 0.03 0.03 0.02 0.01 0.00 0.00
0.01 0.01 0.01 0.01 0.00 0.00 0.01 0.01 0.01 0.02 0.03 0.03 0.04 0.06 0.08 0.08 0.08 0.08 0.06 0.04 0.02 0.01 0.00 0.00 0.00 0.00 0.00 0.00 0.00 0.00 0.00 0.00 0.00 0.01 0.02 0.04 0.05 0.05 0.05 0.05 0.05 0.04 0.02 0.00
0.00 0.00 0.01 0.00 0.00 0.01 0.02 0.02 0.02 0.03 0.09 0.11 0.10 0.08 0.06 0.04 0.03 0.02 0.01 0.00 0.00 0.00 0.00 0.00 0.00 0.00 0.00 0.00 0.00 0.00 0.00 0.00 0.00 0.01 0.02 0.04 0.06 0.07 0.08 0.09 0.10 0.08 0.05 0.02
0.00 0.00 0.00 0.00 0.01 0.01 0.01 0.01 0.02 0.06 0.10 0.05 0.03 0.02 0.01 0.01 0.00 0.00 0.00 0.00 0.00 0.00 0.00 0.00 0.00 0.00 0.00 0.00 0.00 0.00 0.00 0.00 0.00 0.00 0.01 0.03 0.06 0.09 0.11 0.14 0.15 0.13 0.09 0.05
0.00 0.00 0.00 0.00 0.02 0.03 0.01 0.01 0.01 0.01 0.01 0.01 0.00 0.00 0.00 0.00 0.00 0.00 0.00 0.00 0.00 0.00 0.00 0.00 0.00 0.00 0.00 0.00 0.00 0.00 0.00 0.00 0.00 0.00 0.01 0.02 0.05 0.09 0.13 0.17 0.20 0.20 0.16 0.09
0.00 0.00 0.00 0.01 0.02 0.01 0.01 0.00 0.00 0.00 0.00 0.00 0.00 0.00 0.00 0.00 0.00 0.00 0.00 0.00 0.00 0.00 0.00 0.00 0.00 0.00 0.00 0.00 0.00 0.00 0.00 0.00 0.00 0.00 0.01 0.02 0.05 0.09 0.15 0.21 0.27 0.29 0.25 0.15
0.00 0.00 0.00 0.00 0.00 0.00 0.00 0.00 0.00 0.00 0.00 0.00 0.00 0.00 0.00 0.00 0.00 0.00 0.00 0.00 0.00 0.00 0.00 0.00 0.00 0.00 0.00 0.00 0.00 0.00 0.00 0.00 0.00 0.00 0.01 0.02 0.05 0.10 0.15 0.20 0.27 0.33 0.33 0.22
0.00 0.00 0.00 0.00 0.00 0.00 0.00 0.00 0.00 0.00 0.00 0.00 0.00 0.00 0.00 0.00 0.00 0.00 0.00 0.00 0.00 0.00 0.00 0.00 0.00 0.00 0.00 0.00 0.00 0.00 0.00 0.00 0.00 0.01 0.01 0.02 0.05 0.10 0.16 0.21 0.26 0.31 0.31 0.25
0.00 0.00 0.00 0.00 0.00 0.00 0.00 0.00 0.00 0.00 0.00 0.00 0.00 0.00 0.00 0.00 0.00 0.00 0.00 0.00 0.00 0.00 0.00 0.00 0.00 0.00 0.00 0.00 0.00 0.00 0.00 0.00 0.00 0.01 0.01 0.02 0.04 0.09 0.17 0.22 0.27 0.31 0.32 0.28
MSLP
1012.37 1012.94 1013.32 1013.52 1013.57 1013.52 1013.43 1013.34 1013.25 1013.16 1013.03 1012.86 1012.61 1012.30 1011.94 1011.57 1011.24 1010.99 1010.84 1010.79 1010.82 1010.88 1010.94 1010.95 1010.90 1010.79 1010.64 1010.49 1010.37 1010.33 1010.39 1010.53 1010.75 1010.99 1011.23 1011.41 1011.53 1011.55 1011.49 1011.36 1011.17 1010.95 1010.71 1010.48
1012.61 1013.04 1013.30 1013.41 1013.43 1013.43 1013.44 1013.49 1013.59 1013.69 1013.74 1013.70 1013.53 1013.24 1012.85 1012.40 1011.97 1011.62 1011.36 1011.23 1011.20 1011.22 1011.26 1011.25 1011.17 1011.01 1010.81 1010.59 1010.40 1010.29 1010.30 1010.41 1010.61 1010.86 1011.12 1011.33 1011.47 1011.51 1011.45 1011.30 1011.08 1010.81 1010.52 1010.22
1012.66 1012.94 1013.08 1013.13 1013.15 1013.22 1013.37 1013.61 1013.92 1014.22 1014.44 1014.51 1014.40 1014.10 1013.64 1013.09 1012.54 1012.05 1011.68 1011.46 1011.37 1011.36 1011.39 1011.38 1011.31 1011.15 1010.93 1010.69 1010.46 1010.31 1010.28 1010.36 1010.55 1010.81 1011.09 1011.33 1011.50 1011.56 1011.50 1011.34 1011.10 1010.79 1010.45 1010.10
1012.59 1012.72 1012.76 1012.76 1012.82 1012.99 1013.31 1013.75 1014.27 1014.76 1015.14 1015.31 1015.23 1014.89 1014.34 1013.66 1012.95 1012.31 1011.81 1011.49 1011.34 1011.31 1011.33 1011.35 1011.31 1011.19 1010.99 1010.74 1010.52 1010.35 1010.30 1010.37 1010.56 1010.82 1011.11 1011.38 1011.57 1011.65 1011.62 1011.46 1011.20 1010.87 1010.49 1010.08
1012.52 1012.51 1012.46 1012.44 1012.55 1012.84 1013.33 1013.97 1014.68 1015.36 1015.86 1016.10 1016.03 1015.64 1014.98 1014.15 1013.28 1012.49 1011.85 1011.42 1011.19 1011.13 1011.16 1011.21 1011.21 1011.13 1010.97 1010.76 1010.55 1010.39 1010.33 1010.39 1010.57 1010.83 1011.14 1011.42 1011.64 1011.75 1011.74 1011.60 1011.35 1011.00 1010.59 1010.13
1012.53 1012.40 1012.28 1012.26 1012.43 1012.84 1013.48 1014.30 1015.18 1016.00 1016.60 1016.90 1016.81 1016.36 1015.60 1014.63 1013.61 1012.66 1011.89 1011.35 1011.05 1010.95 1010.97 1011.03 1011.07 1011.03 1010.92 1010.74 1010.56 1010.41 1010.35 1010.40 1010.57 1010.83 1011.13 1011.42 1011.66 1011.80 1011.82 1011.70 1011.46 1011.11 1010.68 1010.18
1012.69 1012.47 1012.30 1012.29 1012.52 1013.02 1013.79 1014.74 1015.75 1016.66 1017.34 1017.66 1017.56 1017.06 1016.21 1015.14 1014.00 1012.94 1012.05 1011.42 1011.04 1010.88 1010.87 1010.94 1010.99 1010.98 1010.89 1010.75 1010.57 1010.43 1010.36 1010.40 1010.54 1010.78 1011.06 1011.35 1011.60 1011.76 1011.80 1011.70 1011.49 1011.15 1010.70 1010.18
1012.98 1012.72 1012.53 1012.54 1012.81 1013.37 1014.21 1015.24 1016.31 1017.28 1017.99 1018.33 1018.23 1017.70 1016.82 1015.70 1014.50 1013.36 1012.40 1011.69 1011.24 1011.03 1010.98 1011.01 1011.06 1011.05 1010.97 1010.82 1010.65 1010.49 1010.40 1010.40 1010.50 1010.69 1010.94 1011.20 1011.43 1011.59 1011.65 1011.58 1011.38 1011.06 1010.63 1010.09
1013.37 1013.09 1012.92 1012.94 1013.23 1013.82 1014.68 1015.72 1016.81 1017.78 1018.50 1018.84 1018.75 1018.24 1017.38 1016.27 1015.07 1013.93 1012.95 1012.20 1011.70 1011.44 1011.34 1011.33 1011.33 1011.29 1011.18 1011.02 1010.82 1010.63 1010.49 1010.43 1010.46 1010.58 1010.77 1010.98 1011.18 1011.32 1011.37 1011.32 1011.15 1010.85 1010.43 1009.90
1013.76 1013.51 1013.36 1013.40 1013.69 1014.27 1015.10 1016.10 1017.14 1018.08 1018.77 1019.12 1019.07 1018.62 1017.83 1016.81 1015.69 1014.61 1013.66 1012.92 1012.41 1012.10 1011.94 1011.87 1011.81 1011.72 1011.57 1011.36 1011.11 1010.87 1010.66 1010.52 1010.47 1010.50 1010.59 1010.72 1010.85 1010.95 1010.99 1010.94 1010.79 1010.52 1010.13 1009.63
1014.05 1013.87 1013.76 1013.82 1014.11 1014.64 1015.40 1016.31 1017.27 1018.13 1018.78 1019.14 1019.13 1018.78 1018.12 1017.25 1016.28 1015.32 1014.47 1013.78 1013.28 1012.95 1012.74 1012.60 1012.47 1012.31 1012.09 1011.82 1011.52 1011.21 1010.92 1010.69 1010.54 1010.45 1010.43 1010.46 1010.50 1010.54 1010.54 1010.48 1010.35 1010.12 1009.78 1009.34
1014.20 1014.10 1014.06 1014.15 1014.42 1014.89 1015.55 1016.35 1017.18 1017.95 1018.56 1018.91 1018.97 1018.74 1018.24 1017.56 1016.78 1015.99 1015.27 1014.67 1014.20 1013.86 1013.61 1013.41 1013.21 1012.97 1012.69 1012.36 1011.99 1011.62 1011.25 1010.93 1010.67 1010.46 1010.32 1010.23 1010.17 1010.12 1010.08 1010.00 1009.88 1009.70 1009.42 1009.06
1014.21 1014.22 1014.25 1014.37 1014.62 1015.03 1015.59 1016.26 1016.97 1017.64 1018.18 1018.53 1018.66 1018.54 1018.22 1017.73 1017.16 1016.55 1015.98 1015.48 1015.06 1014.72 1014.44 1014.18 1013.91 1013.62 1013.27 1012.89 1012.47 1012.04 1011.61 1011.20 1010.83 1010.52 1010.25 1010.04 1009.87 1009.75 1009.64 1009.55 1009.44 1009.30 1009.10 1008.83
1014.17 1014.28 1014.38 1014.54 1014.78 1015.13 1015.60 1016.15 1016.74 1017.30 1017.78 1018.12 1018.29 1018.28 1018.11 1017.81 1017.41 1016.98 1016.54 1016.13 1015.75 1015.42 1015.11 1014.80 1014.48 1014.13 1013.75 1013.32 1012.87 1012.40 1011.92 1011.45 1011.00 1010.59 1010.22 1009.90 1009.63 1009.42 1009.26 1009.15 1009.05 1008.96 1008.84 1008.67
1014.19 1014.38 1014.55 1014.75 1014.99 1015.30 1015.69 1016.14 1016.61 1017.07 1017.48 1017.80 1017.99 1018.06 1018.00 1017.83 1017.57 1017.26 1016.92 1016.58 1016.23 1015.89 1015.55 1015.20 1014.84 1014.45 1014.03 1013.59 1013.12 1012.63 1012.13 1011.63 1011.13 1010.65 1010.19 1009.78 1009.43 1009.15 1008.94 1008.80 1008.71 1008.66 1008.61 1008.54
1014.37 1014.62 1014.85 1015.09 1015.34 1015.63 1015.96 1016.32 1016.70 1017.07 1017.41 1017.68 1017.87 1017.96 1017.95 1017.85 1017.67 1017.43 1017.14 1016.82 1016.48 1016.11 1015.74 1015.35 1014.94 1014.52 1014.09 1013.64 1013.18 1012.70 1012.21 1011.69 1011.17 1010.65 1010.14 1009.67 1009.25 1008.91 1008.65 1008.48 1008.40 1008.37 1008.38 1008.39
1014.80 1015.09 1015.36 1015.62 1015.88 1016.16 1016.45 1016.75 1017.06 1017.35 1017.60 1017.81 1017.95 1018.02 1018.01 1017.91 1017.75 1017.51 1017.22 1016.88 1016.50 1016.10 1015.67 1015.24 1014.80 1014.36 1013.92 1013.48 1013.04 1012.59 1012.11 1011.62 1011.10 1010.57 1010.04 1009.53 1009.06 1008.67 1008.37 1008.16 1008.06 1008.04 1008.08 1008.15
1015.49 1015.79 1016.07 1016.35 1016.63 1016.89 1017.16 1017.41 1017.65 1017.86 1018.04 1018.16 1018.22 1018.22 1018.15 1018.01 1017.79 1017.51 1017.17 1016.77 1016.34 1015.87 1015.39 1014.91 1014.44 1013.98 1013.54 1013.12 1012.71 1012.29 1011.86 1011.40 1010.91 1010.39 1009.86 1009.33 1008.83 1008.40 1008.04 1007.80 1007.65 1007.61 1007.65 1007.75
1016.37 1016.66 1016.94 1017.22 1017.49 1017.75 1017.98 1018.20 1018.37 1018.51 1018.59 1018.62 1018.59 1018.49 1018.32 1018.09 1017.79 1017.42 1017.00 1016.53 1016.02 1015.49 1014.95 1014.42 1013.92 1013.45 1013.01 1012.61 1012.22 1011.85 1011.46 1011.04 1010.59 1010.10 1009.58 1009.04 1008.52 1008.05 1007.65 1007.34 1007.14 1007.05 1007.05 1007.14
1017.34 1017.60 1017.86 1018.12 1018.37 1018.60 1018.81 1018.97 1019.08 1019.14 1019.13 1019.05 1018.91 1018.70 1018.42 1018.08 1017.67 1017.21 1016.70 1016.15 1015.57 1014.98 1014.39 1013.83 1013.30 1012.81 1012.38 1011.99 1011.63 1011.29 1010.94 1010.57 1010.15 1009.69 1009.19 1008.66 1008.13 1007.61 1007.15 1006.77 1006.50 1006.33 1006.28 1006.32
1018.27 1018.49 1018.71 1018.93 1019.14 1019.33 1019.49 1019.59 1019.63 1019.60 1019.50 1019.32 1019.06 1018.74 1018.35 1017.90 1017.39 1016.84 1016.26 1015.64 1015.01 1014.37 1013.75 1013.16 1012.61 1012.11 1011.68 1011.29 1010.95 1010.64 1010.32 1009.99 1009.61 1009.18 1008.70 1008.18 1007.62 1007.07 1006.55 1006.10 1005.73 1005.48 1005.35 1005.35
1019.06 1019.23 1019.40 1019.56 1019.72 1019.84 1019.93 1019.96 1019.92 1019.80 1019.59 1019.31 1018.95 1018.52 1018.03 1017.49 1016.91 1016.30 1015.66 1015.00 1014.34 1013.67 1013.03 1012.42 1011.86 1011.36 1010.92 1010.54 1010.20 1009.90 1009.61 1009.31 1008.96 1008.56 1008.10 1007.58 1007.02 1006.43 1005.86 1005.33 1004.88 1004.54 1004.33 1004.27
1019.67 1019.79 1019.89 1019.98 1020.06 1020.10 1020.10 1020.03 1019.90 1019.68 1019.37 1018.99 1018.53 1018.01 1017.45 1016.84 1016.21 1015.56 1014.89 1014.22 1013.54 1012.88 1012.23 1011.62 1011.05 1010.54 1010.09 1009.70 1009.37 1009.08 1008.80 1008.52 1008.20 1007.83 1007.39 1006.88 1006.31 1005.70 1005.08 1004.49 1003.97 1003.56 1003.29 1003.18
1020.08 1020.15 1020.18 1020.19 1020.17 1020.11 1020.00 1019.83 1019.59 1019.26 1018.86 1018.38 1017.85 1017.26 1016.64 1015.99 1015.33 1014.66 1013.99 1013.31 1012.64 1011.98 1011.33 1010.72 1010.15 1009.62 1009.16 1008.77 1008.43 1008.14 1007.87 1007.61 1007.32 1006.97 1006.56 1006.07 1005.51 1004.90 1004.26 1003.63 1003.07 1002.61 1002.29 1002.15
1020.35 1020.36 1020.32 1020.23 1020.11 1019.94 1019.71 1019.43 1019.07 1018.64 1018.14 1017.58 1016.98 1016.33 1015.67 1014.99 1014.32 1013.64 1012.97 1012.30 1011.63 1010.97 1010.33 1009.71 1009.12 1008.59 1008.11 1007.70 1007.35 1007.06 1006.81 1006.57 1006.31 1006.00 1005.63 1005.18 1004.65 1004.05 1003.42 1002.79 1002.21 1001.73 1001.39 1001.25
1020.53 1020.47 1020.35 1020.17 1019.94 1019.65 1019.31 1018.91 1018.44 1017.91 1017.33 1016.69 1016.03 1015.34 1014.64 1013.94 1013.25 1012.57 1011.89 1011.21 1010.54 1009.87 1009.21 1008.57 1007.96 1007.40 1006.90 1006.48 1006.13 1005.84 1005.61 1005.40 1005.18 1004.93 1004.61 1004.22 1003.74 1003.19 1002.59 1001.98 1001.42 1000.95 1000.63 1000.49
Thickness
5754 5741 5735 5743 5750 5755 5753 5750 5750 5762 5778 5771 5765 5765 5773 5782 5783 5782 5781 5781 5781 5781 5782 5784 5783 5782 5779 5774 5770 5767 5763 5760 5755 5751 5747 5744 5742 5742 5740 5739 5738 5737 5735 5734
5736 5734 5749 5756 5756 5751 5748 5745 5747 5758 5769 5764 5757 5755 5763 5768 5770 5771 5771 5772 5772 5771 5772 5774 5775 5775 5772 5768 5764 5760 5757 5753 5750 5746 5743 5740 5738 5736 5734 5732 5730 5729 5728 5727
5735 5745 5761 5758 5752 5746 5745 5743 5746 5748 5754 5753 5751 5740 5746 5756 5761 5764 5765 5766 5766 5765 5764 5765 5766 5765 5764 5760 5758 5755 5751 5748 5744 5740 5736 5732 5729 5726 5724 5722 5721 5721 5720 5720
5742 5755 5759 5755 5751 5748 5738 5753 5752 5746 5734 5723 5733 5713 5733 5741 5745 5750 5753 5755 5757 5759 5759 5759 5759 5758 5757 5755 5753 5749 5745 5741 5737 5734 5729 5724 5718 5714 5713 5712 5711 5711 5711 5710
5740 5753 5753 5750 5753 5756 5748 5751 5743 5735 5727 5715 5717 5707 5715 5733 5735 5739 5745 5749 5751 5753 5753 5753 5754 5753 5751 5749 5745 5741 5738 5734 5731 5728 5724 5718 5713 5710 5707 5704 5702 5701 5701 5701
5747 5759 5758 5756 5759 5758 5752 5738 5725 5712 5703 5693 5706 5702 5704 5718 5731 5737 5742 5745 5748 5749 5749 5749 5749 5747 5744 5741 5738 5735 5732 5729 5726 5723 5719 5714 5709 5705 5700 5697 5694 5693 5691 5691
5731 5744 5755 5761 5750 5747 5738 5713 5688 5683 5675 5681 5700 5698 5702 5728 5736 5738 5740 5742 5745 5745 5744 5742 5741 5738 5736 5734 5732 5730 5727 5723 5721 5717 5713 5709 5704 5700 5696 5692 5688 5685 5683 5682
5713 5714 5743 5753 5746 5736 5731 5713 5684 5673 5668 5676 5692 5694 5712 5731 5736 5738 5738 5737 5737 5736 5736 5735 5734 5732 5730 5730 5728 5724 5721 5717 5714 5710 5706 5702 5699 5694 5690 5686 5682 5679 5676 5675
5713 5715 5744 5751 5752 5743 5723 5711 5707 5683 5679 5671 5681 5697 5713 5725 5724 5724 5725 5724 5722 5723 5724 5725 5725 5724 5722 5720 5718 5715 5712 5709 5706 5703 5699 5695 5692 5688 5685 5681 5676 5673 5670 5669
5728 5717 5732 5740 5746 5740 5732 5711 5690 5678 5666 5662 5677 5683 5683 5695 5699 5703 5705 5706 5707 5709 5711 5711 5710 5709 5708 5706 5704 5702 5700 5697 5696 5694 5691 5689 5685 5682 5678 5674 5671 5667 5665 5663
5734 5713 5716 5722 5720 5717 5719 5707 5687 5673 5670 5658 5655 5669 5687 5683 5685 5686 5688 5690 5692 5694 5694 5694 5693 5693 5693 5692 5691 5689 5687 5685 5684 5683 5681 5679 5677 5674 5671 5667 5665 5662 5659 5657
5722 5705 5697 5707 5721 5723 5719 5710 5690 5678 5672 5660 5653 5660 5684 5679 5677 5677 5677 5679 5679 5679 5679 5679 5679 5679 5678 5676 5675 5673 5673 5672 5672 5672 5672 5670 5669 5666 5664 5661 5658 5655 5653 5651
5720 5703 5687 5689 5699 5713 5711 5707 5697 5679 5666 5653 5648 5659 5673 5670 5667 5666 5665 5665 5665 5666 5666 5664 5663 5662 5660 5659 5659 5659 5658 5658 5659 5661 5662 5662 5661 5659 5657 5655 5652 5649 5647 5645
5727 5705 5693 5687 5690 5701 5701 5702 5694 5675 5662 5656 5659 5661 5658 5654 5652 5652 5651 5651 5651 5650 5649 5649 5647 5645 5645 5644 5644 5645 5645 5645 5647 5649 5651 5652 5653 5653 5651 5649 5646 5643 5641 5639
5726 5708 5704 5702 5705 5703 5699 5694 5690 5679 5671 5660 5660 5651 5643 5642 5640 5639 5638 5638 5637 5636 5635 5634 5632 5631 5631 5631 5631 5631 5631 5632 5634 5635 5638 5641 5644 5645 5644 5642 5639 5637 5634 5633
5717 5710 5704 5701 5706 5700 5690 5684 5679 5669 5662 5656 5647 5637 5634 5634 5632 5629 5626 5625 5624 5622 5621 5620 5618 5617 5616 5615 5615 5616 5616 5618 5618 5620 5623 5628 5631 5633 5634 5633 5632 5629 5628 5626
5704 5698 5689 5683 5691 5691 5670 5663 5662 5651 5644 5640 5633 5624 5622 5621 5618 5614 5612 5610 5608 5607 5606 5604 5602 5601 5600 5599 5598 5598 5599 5600 5601 5603 5607 5611 5615 5619 5622 5623 5622 5621 5620 5619
5696 5686 5674 5671 5678 5663 5650 5656 5651 5640 5631 5626 5619 5614 5609 5605 5603 5602 5600 5596 5595 5594 5591 5589 5587 5586 5584 5582 5581 5581 5581 5582 5582 5584 5587 5591 5596 5602 5606 5609 5611 5612 5612 5611
5694 5682 5666 5657 5657 5652 5646 5643 5636 5629 5620 5611 5605 5603 5600 5598 5596 5596 5593 5587 5582 5578 5574 5572 5569 5567 5565 5563 5562 5561 5562 5562 5562 5564 5567 5571 5575 5581 5588 5593 5598 5601 5602 5603
5682 5675 5660 5651 5650 5640 5625 5630 5630 5622 5610 5600 5596 5592 5588 5582 5573 5576 5576 5570 5565 5560 5556 5552 5550 5547 5544 5543 5540 5538 5540 5541 5542 5545 5547 5550 5554 5559 5567 5576 5583 5589 5593 5596
5665 5656 5646 5640 5636 5625 5613 5618 5622 5603 5593 5590 5584 5578 5571 5562 5557 5558 5554 5549 5544 5540 5537 5534 5530 5528 5526 5524 5520 5519 5520 5521 5525 5527 5529 5532 5535 5540 5548 5557 5566 5575 5583 5587
5648 5643 5636 5630 5625 5614 5606 5606 5595 5586 5584 5578 5572 5565 5557 5551 5546 5541 5535 5529 5524 5520 5516 5512 5508 5509 5508 5505 5501 5502 5505 5509 5510 5512 5514 5517 5520 5523 5531 5538 5549 5561 5572 5579
5634 5628 5624 5617 5607 5602 5598 5591 5587 5580 5571 5565 5557 5551 5543 5534 5528 5523 5516 5511 5506 5502 5499 5497 5494 5495 5496 5494 5492 5492 5498 5499 5500 5501 5503 5506 5509 5511 5515 5522 5533 5547 5560 5572
5625 5623 5616 5607 5602 5597 5592 5586 5579 5570 5561 5553 5544 5536 5526 5516 5511 5505 5500 5496 5493 5491 5489 5488 5486 5487 5490 5491 5490 5490 5493 5494 5493 5494 5496 5498 5500 5502 5504 5509 5520 5534 5549 5563
5614 5613 5605 5597 5594 5589 5585 5578 5570 5560 5550 5541 5533 5522 5511 5502 5497 5493 5490 5488 5487 5486 5486 5484 5483 5485 5488 5489 5489 5490 5490 5489 5488 5489 5490 5492 5493 5495 5497 5503 5512 5524 5539 5555
5608 5602 5596 5589 5586 5575 5570 5566 5557 5546 5537 5529 5519 5511 5503 5493 5488 5487 5487 5486 5485 5485 5486 5485 5485 5486 5488 5488 5488 5489 5487 5485 5485 5486 5487 5487 5488 5490 5492 5497 5508 5521 5534 5549